User: anonymous   Login
Location: Unspecified
(0.0000°N, 0.0000°E)
Time: 14:30:15
(UTC+00:00)
Language:

CHUBUSAT 3 - Orbit

View from above orbital plane
View from above orbital plane
View from above satellite
View from above satellite

Ground track
Ground track

The orbit data is extracted from the following two-line orbital elements,

1 41339U 16012C   22277.07626105  .00002715  00000-0  19676-3 0  9994
2 41339  31.0108  49.0019 0012889 158.7140 201.4062 15.01779884363829
Epoch (UTC): 04 October 2022 01:49:48
Eccentricity: 0.0012889
inclination: 31.0108°
perigee height: 552 km
apogee height: 570 km
right ascension of ascending node: 49.0019°
argument of perigee: 158.7140°
revolutions per day: 15.01779884
mean anomaly at epoch: 201.4062°
orbit number at epoch: 36382

The dashed part of the orbit path shows where the satellite is in the earth's shadow,  

DLR